Location: *
(39.6167°S, 171.5333°W)
Time: 05:52:45
(UTC+00:00)

STARLINK-2636 - Pass Details

Date: 13 May 2021
Orbit: 495 x 497 km, 53.1° (Epoch: 16 June)

Event Time Altitude Azimuth Distance (km) Brightness Sun altitude
Exits shadow 16:29:04 27° 174° (S) 974 4.8 -21.8°
Maximum altitude 16:29:54 30° 150° (SSE) 917 4.9 -21.7°
Drops below altitude 10° 16:33:24 10° 87° (E) 1,714 7.3 -21.0°
Sets 16:35:49 0° 76° (ENE) 2,589 8.6 -20.5°
